Location: Focicchia
(42.2496°N, 9.2935°E)
Time: 02:45:55
(UTC+00:00)

Cosmos 1869 - Pass Details

Date: 07 June 2020
Orbit: 519 x 563 km, 82.5° (Epoch: 11 July)

Event Time Altitude Azimuth Distance (km) Brightness Sun altitude
Rises 01:25:50 0° 351° (N) 2,658 7.6 -18.9°
Reaches altitude 10° 01:27:59 10° 351° (N) 1,763 6.6 -18.7°
Maximum altitude 01:31:51 85° 265° (W) 528 3.1 -18.4°
Enters shadow 01:33:06 41° 178° (S) 761 3.6 -18.2°
